Location: ??????
(37.9347°N, 23.0259°E)
Time: 05:20:32
(UTC+00:00)

Daily predictions for brighter satellites

Satellite Brightness Start Highest point End
(mag) Time Altitude Azimuth Time Altitude Azimuth Time Altitude Azimuth
ADEOS II 3.6 00:02:51 10° NNE 00:06:31 30° ENE 00:06:31 30° ENE
Cosmos 1943 Rocket 3.1 00:06:19 10° NNW 00:10:24 45° N 00:10:24 45° N
SL-16 R/B 3.3 00:13:06 39° ENE 00:13:06 39° ENE 00:17:18 10° NE
ATLAS 5 CENTAUR R/B 3.8 00:11:26 10° NNW 00:16:00 31° NE 00:21:26 10° ESE
Meteor 1-27 Rocket 4.4 00:18:37 51° N 00:18:37 51° N 00:22:45 10° N
CZ-2C R/B 3.5 00:18:46 46° ENE 00:18:46 46° ENE 00:23:28 10° N
SL-16 R/B 4.0 00:15:21 19° ESE 00:18:52 33° ENE 00:24:19 10° N
NPP 4.3 00:26:43 10° N 00:30:40 48° N 00:30:40 48° N
ALOS 4.0 00:28:27 10° NE 00:31:58 27° E 00:31:58 27° E
USA 215 3.7 00:27:10 10° NE 00:33:25 49° NW 00:34:07 47° NW
Cosmos 2344 4.2 00:25:34 10° NW 00:34:39 80° WSW 00:47:34 10° SSE
BREEZE-M DEB (TANK) 4.1 00:41:45 68° NE 00:41:45 68° NE 00:50:41 10° NE
ATLAS 3B R/B 4.5 00:42:48 10° NNW 00:49:52 35° NE 00:56:50 10° ESE
Cosmos 2026 Rocket 4.0 00:53:06 67° WNW 00:53:06 67° WNW 00:59:16 10° N
MSX 4.2 00:50:31 10° N 00:55:31 50° NW 00:55:31 50° NW
Cosmos 1092 Rocket 4.0 00:58:02 60° WNW 00:58:02 60° WNW 01:03:47 10° N
Cosmos 2237 Rocket 3.8 00:59:39 23° NW 00:59:39 23° NW 01:03:41 10° N
Cosmos 1371 Rocket 4.3 00:55:25 10° NNW 00:59:41 59° NNW 00:59:41 59° NNW
Cosmos 1328 Rocket 4.1 01:04:12 55° NNE 01:04:12 55° NNE 01:07:43 10° N
Cosmos 2369 Rocket 3.8 00:59:49 10° N 01:04:52 33° ENE 01:09:52 10° SE
IDEFIX/ARIANE 42P 3.7 01:00:19 10° N 01:03:55 31° NW 01:03:55 31° NW
USA 267 3.7 00:58:46 10° ESE 01:05:07 61° NE 01:11:31 10° NW
Cosmos 1626 4.1 01:09:30 24° NNE 01:09:30 24° NNE 01:10:58 10° NNE
ISS -1.1 01:11:17 16° E 01:11:17 16° E 01:12:22 10° E
Cosmos 921 Rocket 4.4 01:11:48 30° NNW 01:11:48 30° NNW 01:14:29 10° N
CZ-2D R/B 2.9 01:05:53 10° N 01:10:23 39° NW 01:10:23 39° NW
CZ-2C R/B 3.2 01:05:36 10° N 01:10:56 65° WNW 01:10:56 65° WNW
Cosmos 2297 4.4 01:07:51 10° NNW 01:13:30 54° ENE 01:19:06 10° SE
Cosmos 1975 4.3 01:13:12 10° N 01:15:12 29° NNW 01:15:12 29° NNW
AQUA 4.1 01:13:49 10° N 01:17:56 54° NW 01:17:56 54° NW
Cosmos 1633 Rocket 3.2 01:14:12 10° N 01:18:04 69° N 01:18:04 69° N
Cosmos 494 Rocket 4.0 01:22:01 62° WNW 01:22:03 62° WNW 01:27:08 10° NNE
Meteor 2-4 Rocket 3.7 01:22:13 57° W 01:22:22 58° W 01:27:53 10° N
Resurs 1-4 Rocket 3.2 01:18:16 10° N 01:22:17 29° WNW 01:22:17 29° WNW
Cosmos 1943 3.8 01:21:56 35° SSE 01:23:58 53° ESE 01:29:30 10° NNE
Cosmos 1048 Rocket 3.9 01:29:21 63° SW 01:30:03 74° WNW 01:35:19 10° NNE
Cosmos 1766 3.6 01:28:42 10° N 01:32:20 57° E 01:32:42 54° ESE
FENGYUN 3A 4.0 01:27:17 10° N 01:32:25 45° WNW 01:32:49 44° W
UNK 3.6 01:32:03 52° SSE 01:33:10 90° NE 01:37:48 10° NNW
Meteor 2-12 Rocket 4.3 01:32:14 48° SSW 01:33:53 71° W 01:39:58 10° N
Delta 2 Rocket 3.6 01:35:05 65° SSW 01:35:30 69° S 01:40:29 10° E
EO 1 Delta rocket 4.0 01:34:21 10° N 01:39:01 66° W 01:40:06 51° SW
SEDSat Delta rocket 4.0 01:42:01 42° SSW 01:42:53 45° S 01:48:47 10° ESE
CZ-2C R/B 3.2 01:39:34 10° NNE 01:44:36 52° E 01:48:12 18° S
Cosmos 468 4.4 01:43:09 48° SW 01:44:36 75° WNW 01:49:52 10° NNE
Cosmos 1417 Rocket 4.5 01:40:13 10° N 01:46:37 88° ENE 01:52:59 10° S
ADEOS II 3.1 01:42:37 10° N 01:47:02 28° WNW 01:47:24 28° WNW
Cosmos 2266 Rocket 3.8 01:47:39 27° S 01:51:09 84° W 01:57:12 10° N
USA 306 2.8 01:51:38 52° SSE 01:52:07 58° SE 01:55:43 10° NE
ATLAS 2AS CENTAUR R/B 4.0 01:49:36 21° W 01:52:52 28° NW 01:58:55 10° NNE
Cosmos 1707 2.9 01:52:47 35° SSE 01:54:07 62° E 01:57:45 10° NNE
Cosmos 1943 Rocket 4.3 01:51:38 10° WNW 01:51:51 11° WNW 01:51:51 11° WNW
SL-08 ROCKET BODY 4.3 01:51:35 22° S 01:55:36 90° W 02:01:41 10° N
IRS-1D 4.1 01:50:37 10° NNE 01:55:44 58° E 02:00:21 13° S
Cosmos 1603 4.0 01:52:14 22° S 01:55:48 62° ESE 02:01:22 10° NNE
SL-16 R/B 3.4 01:54:58 23° WNW 01:56:13 25° WNW 02:00:53 10° N
CZ-4 R/B 3.7 01:53:15 10° N 01:57:54 71° WNW 01:59:42 37° SSW
Cosmos 1842 3.0 01:57:28 54° SSW 01:58:12 78° W 02:01:58 10° N
Cosmos 1110 Rocket 4.0 01:53:06 10° NNW 01:58:25 87° ENE 02:03:43 10° SSE
CZ-2C R/B 4.2 02:00:14 18° WNW 02:00:14 18° WNW 02:02:41 10° NW
Lacrosse 5 rocket 4.1 01:58:12 10° SE 01:59:32 11° ESE 02:00:52 10° E
ATLAS 5 CENTAUR R/B 2.6 01:54:53 10° NW 02:00:05 44° WSW 02:06:18 10° S
S3M 3.9 01:53:56 10° N 02:00:10 87° W 02:06:28 10° S
GEOS 3 Rocket 3.8 01:55:06 10° SSE 02:00:14 48° WSW 02:05:23 10° NW
SL-16 R/B 3.0 02:00:26 31° SW 02:02:17 37° W 02:08:00 10° NNW
Cosmos 1515 Rocket 3.9 02:03:19 39° WSW 02:04:15 45° W 02:08:30 10° N
ATLAS 5 CENTAUR R/B 4.1 02:02:36 23° SW 02:06:32 26° SSW 02:12:25 10° SSE
Cosmos 1452 Rocket 3.4 02:01:30 10° NNW 02:06:45 75° WSW 02:11:57 10° S
YAOGAN 6 2.4 02:04:46 10° NNE 02:08:05 78° E 02:09:30 32° S
ALOS 3.3 02:05:38 10° NNW 02:09:30 27° WNW 02:10:18 25° W
Envisat 3.0 02:07:37 10° N 02:12:38 62° WNW 02:15:42 23° SSW
Cosmos 1869 Rocket 4.2 02:08:28 10° N 02:12:43 56° E 02:16:57 10° SSE
Cosmos 1470 Rocket 4.2 02:09:51 10° NNW 02:13:53 35° W 02:15:01 30° WSW
NOSS 3-1 (A) 4.2 02:08:33 10° NW 02:16:22 80° WSW 02:25:34 10° SSE
Meteor 1-13 Rocket 4.2 02:17:05 10° S 02:22:45 83° W 02:28:39 10° N
Cosmos 2228 Rocket 4.1 02:19:21 10° SSE 02:23:32 45° E 02:27:43 10° NNE
Cosmos 1331 Rocket 4.0 02:18:29 10° NNW 02:23:41 59° WSW 02:28:50 10° S
Cosmos 1674 3.5 02:28:14 24° W 02:28:43 25° WNW 02:31:38 10° NNW
Orbus 7S? 2.8 02:31:04 24° WSW 02:32:50 61° NW 02:35:29 10° NE
DMSP B5D2-2 4.0 02:27:57 10° SSE 02:33:08 87° WSW 02:38:22 10° NNW
Cosmos 1655 Rocket 4.2 02:30:23 11° SSW 02:36:10 52° W 02:42:15 10° N
CRYOSAT 2 4.5 02:33:10 10° N 02:37:56 56° W 02:42:41 10° SSW
Cosmos 1908 3.0 02:36:36 10° NNW 02:40:11 65° W 02:43:45 10° S
Cosmos 1933 Rocket 4.1 02:36:47 10° NNW 02:40:43 35° W 02:44:37 10° SSW
ATLAS 3B R/B 3.0 02:33:22 10° NW 02:41:02 58° WSW 02:48:27 10° SSE
Cosmos 1862 Rocket 4.4 02:38:55 10° S 02:43:09 51° E 02:47:22 10° NNE
Cosmos 1733 Rocket 4.4 02:39:06 10° N 02:43:12 42° E 02:47:16 10° SSE
USA 305 1.6 02:44:21 27° NW 02:44:31 28° NW 02:46:09 10° NNE
Cosmos 1470 3.3 02:41:26 10° NNW 02:44:52 33° W 02:48:17 10° SSW
Cosmos 2315 Rocket 4.1 02:39:44 10° NNW 02:45:46 56° W 02:51:48 10° SSW
ISS -2.8 02:44:09 17° W 02:46:19 36° NNW 02:49:26 10° NE
USA 267 3.8 02:42:28 10° S 02:48:17 35° SW 02:54:10 10° WNW
Cosmos 2369 Rocket 2.9 02:43:55 10° NW 02:48:45 31° WSW 02:53:34 10° SSW
USA 276 1.9 02:51:25 17° WSW 02:53:23 65° NW 02:56:16 10° NE
Cosmos 614 Rocket 4.0 02:49:19 10° SSW 02:54:19 59° WNW 02:59:24 10° N
Cosmos 1300 3.9 02:52:07 10° N 02:55:33 44° E 02:58:58 10° SSE
Cosmos 1441 Rocket 3.7 02:54:49 10° N 02:58:32 61° E 03:02:10 10° SSE
Cosmos 1269 Rocket 4.1 02:56:42 10° SSW 03:01:59 86° ESE 03:07:17 10° NNE
Cosmos 44 3.4 02:58:55 10° NNW 03:03:48 76° ENE 03:08:20 10° SE
Cosmos 1707 Rocket 3.7 03:08:31 10° SSW 03:12:44 54° W 03:16:59 10° N
Delta 2 Rocket 4.1 03:11:33 10° W 03:16:24 50° SSW 03:21:07 10° ESE
